Retour au catalogue

USA 461

ActifMilitaireVLEO
NORAD 62360·PAYLOAD·🇺🇸 United States

Lancé Dec 17, 2024 depuis Vandenberg Space Force Base

Loading…

Prochains Passages (prochaines 24 heures)

TLE

PériméSource: Mike McCants

Époque: Aug 21, 2026, 20:22 UTC

1 62360U 24243W   26233.84891876 0.00000000  00000-0  00000-0 0    02
2 62360  70.0200 132.1491 0002000  44.4988 315.5011 14.96713500    00

Suivez USA 461 en temps réel avec AllMySat

Download on the App Store